Regional Weather Roundup
Issued by NWS Cleveland, OH

Home | Current Version | Previous Version | Text Only | Print | Product List | Glossary Off
Versions: 1 2 3 4 5 6 7 8 9 10 11 12 13 14 15 16 17 18 19 20 21 22 23 24 25 26 27 28 29 30 31 32 33 34 35 36 37 38 39 40 41 42 43 44 45 46 47 48 49 50

000
ASUS41 KCLE 301610
RWRCLE
OHIO REGIONAL WEATHER ROUNDUP
NATIONAL WEATHER SERVICE CLEVELAND, OH
1200 PM EDT SAT MAY 30 2015

NOTE: "FAIR" INDICATES FEW OR NO CLOUDS BELOW 12,000 FEET WITH NO
SIGNIFICANT WEATHER AND/OR OBSTRUCTIONS TO VISIBILITY.

OHZ001>008-015>018-024>027-034-035-043-044-301700-
   NORTHWEST OHIO

CITY           SKY/WX    TMP DP  RH WIND       PRES   REMARKS
DEFIANCE       PTSUNNY   79  66  64 SW8       30.01F
FINDLAY        MOSUNNY   81  67  62 SW7       30.02F
TOLEDO EXPRESS MOSUNNY   81  65  58 SW10      30.00F
TOLEDO EXEC    MOSUNNY   81  65  58 SW13      30.01F
LIMA           MOSUNNY   80  67  64 SW10      30.03F
$$

OHZ009>014-019>023-028>033-038-089-301700-
   NORTHEAST OHIO

CITY           SKY/WX    TMP DP  RH WIND       PRES   REMARKS
CLE-HOPKINS    CLOUDY    81  68  64 SW8       30.04F
CLE-LAKEFRONT  MOSUNNY   81  68  64 S7        30.02F
CUY CO. ARPT   PTSUNNY   81  70  69 W14       30.05F
LORAIN-ELYRIA  PTSUNNY   79  67  66 SW9       30.03F
ASHTABULA      PTSUNNY   79  68  69 SW9       30.06F
AKRON-CANTON   CLOUDY    78  65  63 S13       30.08S
WOOSTER        LGT RAIN  75  67  76 SW9       30.08F
MANSFIELD      PTSUNNY   76  66  71 SW10      30.08R
YOUNGSTOWN     PTSUNNY   78  66  66 SW9       30.08F
$$

OHZ042-051>053-060>062-070>072-077>081-301700-
  SOUTHWEST OHIO

CITY           SKY/WX    TMP DP  RH WIND       PRES   REMARKS
CINC-COVINGTON MOSUNNY   81  68  64 SW9       30.07F
CINC-LUNKEN    MOSUNNY   82  69  64 SW12      30.06F
HAMILTON       PTSUNNY   82  68  62 VRB5      30.07S
DAYTON         PTSUNNY   81  67  62 SW14G21   30.06F
WRIGHT-PAT AFB MOSUNNY   81  68  65 SW13      30.06S
DAYTON GENERAL MOSUNNY   80  68  66 SW10      30.07S
WILMINGTON     MOSUNNY   82  64  54 SW16      30.08F
$$

OHZ036-037-039>041-045>050-054>059-063>069-073>076-082>088-301700-
  CENTRAL AND SOUTHEAST OHIO

CITY           SKY/WX    TMP DP  RH WIND       PRES   REMARKS
COLUMBUS       PTSUNNY   78  68  71 SW13      30.07F
OSU AIRPORT    RAIN      76  68  76 S10       30.07F
BOLTON FIELD   CLOUDY    75  68  78 S8        30.08F
RICKENBACK AFB MOSUNNY   77  68  72 S12       30.08S
NEWARK         CLOUDY    75  69  81 SW8       30.09S
MARION         PTSUNNY   80  67  64 W8        30.05F
LANCASTER      PTSUNNY   79  66  64 W10       30.09F
ZANESVILLE     NOT AVBL
NEW PHILLY     LGT RAIN  75  68  78 VRB6      30.10R
$$



USA.gov is the U.S. government's official web portal to all federal, state and local government web resources and services.